User: anonymous   Login
Location: Unspecified
(0.0000°N, 0.0000°E)
Time: 06:07:29
(UTC+00:00)
Language:

Tiros 1 - Orbit

View from above orbital plane
View from above orbital plane
View from above satellite
View from above satellite

Ground track
Ground track

The orbit data is extracted from the following two-line orbital elements,

1 00029U 60002B   21292.89602331 -.00000023  00000-0  27533-4 0  9997
2 00029  48.3785 158.6101 0023852 167.5647 192.5858 14.74464976290760
Epoch (UTC): 19 October 2021 21:30:16
Eccentricity: 0.0023852
inclination: 48.3785°
perigee height: 630 km
apogee height: 663 km
right ascension of ascending node: 158.6101°
argument of perigee: 167.5647°
revolutions per day: 14.74464976
mean anomaly at epoch: 192.5858°
orbit number at epoch: 29076

The dashed part of the orbit path shows where the satellite is in the earth's shadow,  

DLR